Starlink 32415

operational
NORAD ID: 61861 Int'l Des: 2024-202 Owner: SPXS Country: US Constellation: starlink
LEOCIRCULAR

Über Starlink 32415

Beschreibung wird geladen...

Live-Position

3D-Globus wird geladen...

Nächste Überflüge

Höhenverlauf

Altitude vs Time

uPlot chart will show altitude changes over time

Zweizeiliger Elementsatz

1 61861U 24202S 25350.30454768 .00002890 00000-0 11450-3 0 9997
2 61861 43.0015 349.0170 0000549 232.7672 127.3130 15.27579448 62577
Epoch: 16. Dez. 2025 • Age: 15 hours

Aktueller Status

Höhe 484.9 km
Geschwindigkeit 7.62 km/s
Subsatellitenpunkt -12.21°S, 118.61°E
Startdatum 7. Nov. 2024
Alter 1.1 years
Typ internet

Technische Details

Klassifizierung Payload
Masse 730.00 kg
Trockenmasse 700.00 kg
Gesamtmasse 730.00 kg
Länge 0.30 m
Durchmesser 4.10 m
Spannweite 29.00 m
Form Box + pan
Hersteller SPXS
Bus-Typ Starlink V2M
Phasenstatus In Orbit
Besitzer/Staat SPXS/US

Große Konstellationen

Loading constellations...